| time (UTC) | temp C | wind direction | speed KPH | gust KPH | rain 1hr cm | rain 24hr cm | rain mn cm | humidity % | barometer mb |
| 20260507150210 | 16 | 78 | 9.7 | 0.0 | 0.00 | 0.00 | 0.61 | 65 | 1015.3 |
| 20260507143212 | 16 | 5 | 16.1 | 0.0 | 0.00 | 0.00 | 0.61 | 68 | 1015.5 |
| 20260507140210 | 16 | 54 | 8.0 | 0.0 | 0.00 | 0.00 | 0.61 | 69 | 1015.6 |
| 20260507133210 | 15 | 166 | 16.1 | 0.0 | 0.00 | 0.00 | 0.61 | 74 | 1015.9 |
| 20260507130210 | 15 | 53 | 14.5 | 0.0 | 0.00 | 0.00 | 0.61 | 76 | 1015.8 |
| 20260507123210 | 13 | 18 | 9.7 | 0.0 | 0.00 | 0.00 | 0.61 | 78 | 1015.9 |
| 20260507120211 | 15 | 15 | 16.1 | 0.0 | 0.00 | 0.00 | 0.61 | 79 | 1015.7 |
| 20260507113210 | 14 | 321 | 4.8 | 0.0 | 0.00 | 0.00 | 0.61 | 73 | 1015.8 |
| 20260507110210 | 14 | 219 | 8.0 | 0.0 | 0.00 | 0.00 | 0.61 | 76 | 1015.8 |
| 20260507103216 | 14 | 248 | 6.4 | 0.0 | 0.00 | 0.00 | 0.61 | 78 | 1015.9 |
| 20260507100212 | 13 | 252 | 4.8 | 0.0 | 0.00 | 0.00 | 0.61 | 79 | 1015.8 |
| 20260507093210 | 13 | 274 | 6.4 | 0.0 | 0.00 | 0.00 | 0.61 | 81 | 1015.9 |
| 20260507090211 | 12 | 240 | 4.8 | 0.0 | 0.00 | 0.00 | 0.61 | 85 | 1015.7 |
| 20260507083212 | 11 | 274 | 3.2 | 0.0 | 0.00 | 0.00 | 0.61 | 91 | 1015.6 |
| 20260507080211 | 11 | 305 | 8.0 | 0.0 | 0.00 | 0.00 | 0.61 | 92 | 1015.4 |
| 20260507073212 | 10 | 210 | 4.8 | 0.0 | 0.00 | 0.00 | 0.61 | 95 | 1015.3 |
| 20260507070212 | 10 | 229 | 3.2 | 0.0 | 0.00 | 0.00 | 0.61 | 95 | 1015.0 |
| 20260507063211 | 10 | 283 | 4.8 | 0.0 | 0.00 | 0.00 | 0.61 | 96 | 1015.0 |
| 20260507060211 | 10 | 197 | 4.8 | 0.0 | 0.00 | 0.00 | 0.58 | 96 | 1014.7 |
| 20260507053211 | 10 | 228 | 4.8 | 0.0 | 0.00 | 0.00 | 0.56 | 96 | 1014.5 |
| 20260507050213 | 9 | 279 | 3.2 | 0.0 | 0.00 | 0.00 | 0.56 | 96 | 1014.0 |
| 20260507043211 | 9 | 133 | 6.4 | 0.0 | 0.00 | 0.00 | 0.53 | 96 | 1013.7 |
| 20260507040216 | 9 | 150 | 4.8 | 0.0 | 0.00 | 0.00 | 0.53 | 96 | 1013.5 |
| 20260507033211 | 9 | 133 | 8.0 | 0.0 | 0.00 | 0.00 | 0.51 | 96 | 1013.3 |
| 20260507030211 | 9 | 209 | 12.9 | 0.0 | 0.00 | 0.00 | 0.46 | 96 | 1013.1 |
| 20260507023211 | 9 | 210 | 12.9 | 0.0 | 0.00 | 0.00 | 0.38 | 96 | 1012.9 |
| 20260507020211 | 9 | 172 | 12.9 | 0.0 | 0.00 | 0.00 | 0.30 | 95 | 1012.7 |
| 20260507013212 | 9 | 239 | 6.4 | 0.0 | 0.00 | 0.00 | 0.23 | 95 | 1012.5 |
| 20260507010211 | 9 | 226 | 9.7 | 0.0 | 0.00 | 0.00 | 0.18 | 95 | 1012.4 |
| 20260507003209 | 9 | 244 | 16.1 | 0.0 | 0.00 | 0.00 | 0.15 | 94 | 1012.3 |
| 20260507000209 | 9 | 147 | 9.7 | 0.0 | 0.00 | 0.00 | 0.15 | 94 | 1012.4 |
| 20260506233209 | 9 | 158 | 8.0 | 0.0 | 0.00 | 0.00 | 0.08 | 94 | 1012.6 |
| 20260506230209 | 9 | 311 | 12.9 | 0.0 | 0.00 | 0.00 | 0.05 | 94 | 1012.5 |
| 20260506223209 | 9 | 245 | 4.8 | 0.0 | 0.00 | 0.00 | 0.03 | 94 | 1012.4 |
| 20260506220209 | 9 | 79 | 22.5 | 0.0 | 0.00 | 0.00 | 1.12 | 93 | 1012.1 |
| 20260506213209 | 9 | 303 | 19.3 | 0.0 | 0.00 | 0.00 | 1.09 | 94 | 1011.9 |
| 20260506210210 | 10 | 103 | 9.7 | 0.0 | 0.00 | 0.00 | 1.09 | 95 | 1011.8 |
| 20260506203210 | 10 | 238 | 8.0 | 0.0 | 0.00 | 0.00 | 1.02 | 95 | 1011.7 |
| 20260506200210 | 10 | 139 | 8.0 | 0.0 | 0.00 | 0.00 | 0.94 | 95 | 1011.4 |
| 20260506193215 | 10 | 171 | 6.4 | 0.0 | 0.00 | 0.00 | 0.84 | 95 | 1011.1 |
| 20260506190211 | 10 | 187 | 19.3 | 0.0 | 0.00 | 0.00 | 0.76 | 94 | 1010.8 |
| 20260506183209 | 10 | 224 | 9.7 | 0.0 | 0.00 | 0.00 | 0.66 | 94 | 1010.6 |
| 20260506180216 | 10 | 245 | 4.8 | 0.0 | 0.00 | 0.00 | 0.53 | 94 | 1010.2 |
| 20260506173210 | 10 | 216 | 16.1 | 0.0 | 0.00 | 0.00 | 0.46 | 94 | 1009.8 |
| 20260506170215 | 11 | 129 | 8.0 | 0.0 | 0.00 | 0.00 | 0.36 | 93 | 1009.5 |
| 20260506163210 | 11 | 172 | 14.5 | 0.0 | 0.00 | 0.00 | 0.25 | 91 | 1009.5 |
| 20260506160210 | 11 | 212 | 8.0 | 0.0 | 0.00 | 0.00 | 0.18 | 90 | 1009.4 |
| 20260506153210 | 11 | 255 | 9.7 | 0.0 | 0.00 | 0.00 | 0.10 | 87 | 1009.2 |